GW5813 Weather Reports


Display with metric or nautical units.
time (UTC)temp
F
wind
direction
speed
MPH
gust
MPH
rain 1hr
in
rain 24hr
in
rain mn
in
humidity
%
barometer
mb
20260506174524 59 49 4.0 10.0 0.00 0.00 0.00 28 1022.6
20260506173026 59 340 3.0 7.0 0.00 0.00 0.00 26 1022.5
20260506171529 58 360 2.0 5.0 0.00 0.00 0.00 28 1022.3
20260506170019 57 251 2.0 10.0 0.00 0.00 0.00 29 1022.4
20260506164525 57 20 4.0 7.0 0.00 0.00 0.00 40 1022.3
20260506163028 55 5 0.0 5.0 0.00 0.00 0.00 44 1022.2
20260506161514 53 5 2.0 3.0 0.00 0.00 0.00 51 1022.1
20260506160013 50 5 3.0 5.0 0.00 0.01 0.00 55 1022.1
20260506154507 50 9 2.0 5.0 0.00 0.01 0.00 55 1022.0
20260506153012 49 352 0.0 0.0 0.00 0.01 0.00 59 1021.9
20260506151517 47 352 0.0 0.0 0.00 0.02 0.00 63 1022.0
20260506150018 44 352 0.0 0.0 0.00 0.04 0.00 68 1022.0
20260506144523 43 348 0.0 0.0 0.00 0.05 0.00 70 1021.9
20260506143016 42 291 0.0 0.0 0.00 0.07 0.00 72 1021.7
20260506141518 41 289 0.0 0.0 0.00 0.08 0.00 78 1021.5
20260506140024 38 286 0.0 0.0 0.00 0.09 0.00 83 1021.4
20260506134510 36 287 0.0 1.0 0.00 0.10 0.00 83 1021.2
20260506133016 34 287 0.0 3.0 0.00 0.10 0.00 83 1020.9
20260506131527 34 287 1.0 3.0 0.00 0.10 0.00 83 1020.7
20260506130022 34 287 1.0 4.0 0.00 0.10 0.00 83 1020.5
20260506124511 34 289 1.0 3.0 0.00 0.10 0.00 83 1020.2
20260506123024 34 289 1.0 3.0 0.00 0.10 0.00 82 1020.1
20260506121522 34 289 1.0 3.0 0.00 0.10 0.00 81 1020.0
20260506120029 35 290 1.0 3.0 0.00 0.10 0.00 81 1019.7
20260506114518 35 288 0.0 2.0 0.00 0.10 0.00 80 1019.8
20260506113018 35 288 1.0 3.0 0.00 0.10 0.00 79 1019.5
20260506111523 36 304 1.0 3.0 0.00 0.10 0.00 79 1019.4
20260506110037 36 304 0.0 3.0 0.00 0.10 0.00 78 1019.5
20260506104522 37 304 2.0 3.0 0.00 0.10 0.00 78 1019.4
20260506103022 37 304 2.0 4.0 0.00 0.10 0.00 76 1019.3
20260506101529 37 219 0.0 0.0 0.00 0.10 0.00 75 1019.2
20260506100025 38 219 0.0 0.0 0.00 0.10 0.00 73 1019.1
20260506094518 39 219 0.0 0.0 0.00 0.10 0.00 71 1018.9
20260506093031 40 219 0.0 0.0 0.00 0.11 0.00 69 1018.9
20260506091524 40 219 0.0 0.0 0.00 0.11 0.00 67 1018.8
20260506090033 41 219 0.0 4.0 0.00 0.11 0.00 64 1018.7
20260506084518 40 217 1.0 4.0 0.00 0.11 0.00 70 1018.8
20260506083031 40 213 0.0 0.0 0.00 0.11 0.00 70 1018.8
20260506081527 41 213 0.0 0.0 0.00 0.11 0.00 70 1018.6
20260506073026 41 229 1.0 3.0 0.00 0.11 0.00 68 1018.3
20260506071510 42 229 1.0 2.0 0.00 0.11 0.00 65 1018.5
20260506061510 44 208 3.0 7.0 0.00 0.11 0.11 48 1018.0
20260506044533 44 232 2.0 8.0 0.00 0.11 0.11 54 1017.2
20260506043008 46 250 2.0 6.0 0.00 0.11 0.11 51 1017.0
20260506041511 46 218 2.0 7.0 0.00 0.11 0.11 52 1016.7
20260506040022 45 225 2.0 5.0 0.00 0.11 0.11 52 1016.5
20260506034525 45 250 2.0 5.0 0.00 0.11 0.11 53 1016.4
20260506033013 45 227 2.0 6.0 0.00 0.11 0.11 52 1016.1
20260506031529 45 237 2.0 5.0 0.00 0.11 0.11 52 1015.8
20260506030021 46 252 2.0 4.0 0.00 0.11 0.11 51 1015.6
20260506024532 47 244 1.0 4.0 0.00 0.11 0.11 49 1015.4
20260506023014 48 246 1.0 3.0 0.00 0.11 0.11 47 1015.3
20260506021521 49 246 1.0 4.0 0.00 0.11 0.11 45 1014.9
20260506020025 50 244 1.0 4.0 0.00 0.12 0.11 45 1014.6
20260506014527 51 275 2.0 8.0 0.00 0.12 0.11 43 1014.5
20260506013013 51 299 1.0 3.0 0.00 0.15 0.11 41 1014.4
20260506011520 52 350 1.0 4.0 0.00 0.15 0.11 36 1014.2
20260506010047 53 290 1.0 6.0 0.00 0.15 0.11 34 1014.1
20260506004528 52 325 2.0 10.0 0.00 0.15 0.11 38 1014.0
20260506003014 52 323 2.0 8.0 0.00 0.15 0.11 38 1013.9
20260506001522 50 290 3.0 9.0 0.00 0.15 0.11 44 1013.9
20260506000026 50 313 4.0 10.0 0.00 0.15 0.11 45 1013.8
20260505234530 50 334 4.0 12.0 0.00 0.15 0.11 45 1013.8
20260505233019 51 324 3.0 12.0 0.00 0.15 0.11 48 1013.7
20260505231525 50 338 5.0 14.0 0.00 0.15 0.11 48 1013.8
20260505230037 50 348 4.0 10.0 0.00 0.15 0.11 46 1013.7
20260505224533 52 13 4.0 12.0 0.00 0.15 0.11 36 1013.5
20260505223021 54 15 4.0 8.0 0.00 0.15 0.11 33 1013.5
20260505221508 52 15 4.0 12.0 0.00 0.15 0.11 35 1013.5
20260505220007 52 321 4.0 9.0 0.00 0.15 0.11 35 1013.5
20260505214516 52 256 1.0 4.0 0.00 0.15 0.11 41 1013.6
20260505213026 51 344 1.0 4.0 0.00 0.15 0.11 47 1013.6
20260505211506 51 5 3.0 7.0 0.00 0.15 0.11 41 1013.6
20260505210012 50 232 2.0 5.0 0.00 0.15 0.11 48 1013.5
20260505204520 49 266 2.0 4.0 0.00 0.15 0.11 53 1013.7
20260505203003 48 166 1.0 8.0 0.00 0.15 0.11 53 1013.7
20260505201510 46 89 2.0 4.0 0.00 0.15 0.11 53 1013.7
20260505200014 47 5 2.0 7.0 0.00 0.15 0.11 53 1013.9
20260505194519 45 62 0.0 8.0 0.00 0.15 0.11 55 1014.2
20260505193004 45 28 3.0 8.0 0.00 0.15 0.11 57 1014.1
20260505191507 44 242 1.0 6.0 0.00 0.15 0.11 67 1013.9
20260505190025 42 319 3.0 8.0 0.00 0.15 0.11 70 1013.8
20260505184522 42 327 2.0 8.0 0.00 0.15 0.11 74 1013.8
20260505183003 41 39 0.0 0.0 0.00 0.15 0.11 79 1013.7
20260505181512 40 53 0.0 4.0 0.00 0.15 0.11 80 1013.5
20260505180017 40 16 0.0 3.0 0.00 0.15 0.11 84 1013.2